User: anonymous   Login
Location: Unspecified
(0.0000°N, 0.0000°E)
Time: 06:53:52
(UTC+02:00)
Language:

IUS-9 SRM-1 - Orbit

View from above orbital plane
View from above orbital plane
View from above satellite
View from above satellite

Ground track
Ground track

The orbit data is extracted from the following two-line orbital elements,

1 19884U 89021C   16149.53616604  .00009239  00000-0  89011-3 0  9997
2 19884  26.5083 304.7098 6001489 161.1822 237.3193  4.07328673318163
Epoch (UTC): 28 May 2016 12:52:04
Eccentricity: 0.6001489
inclination: 26.5083°
perigee height: 244 km
apogee height: 20123 km
right ascension of ascending node: 304.7098°
argument of perigee: 161.1822°
revolutions per day: 4.07328673
mean anomaly at epoch: 237.3193°
orbit number at epoch: 31816

The dashed part of the orbit path shows where the satellite is in the earth's shadow,  

DLR